{"data":{"norad_id":66639,"epoch":"2026-09-20T15:35:37.230144Z","epoch_age_seconds":73844,"freshness":"FRESH","line1":"1 66639U 25271Y   26263.64973646  .00012683  00000+0  38570-3 0  9996","line2":"2 66639  53.1584 313.1096 0001314  73.8891 286.2256 15.34413187 47432","mean_motion":15.34413187,"eccentricity":0.0001314,"inclination_deg":53.1584,"raan_deg":313.1096,"arg_perigee_deg":73.8891,"mean_anomaly_deg":286.2256,"bstar":0.0003857,"rev_number":4743,"period_min":93.846951538223,"perigee_km":461.76516468734,"apogee_km":463.56292720221,"semimajor_km":6840.8010459448,"source":"CELESTRAK","updated_at":"2026-09-21T09:00:35.986624Z"}}